Weather History for Middletown, PA

Change the Weather History Date:

Wednesday, May 22, 2013

  Actual Average Record
Temperature  
Mean Temperature 78 °F 64 °F  
Max Temperature 88 °F 74 °F 96 °F (1941)
Min Temperature 67 °F 54 °F 38 °F (1895)
Degree Days  
Heating Degree Days 0 3  
Month to date heating degree days 114 124  
Since 1 July heating degree days 5079 5227  
Cooling Degree Days 13 2  
Month to date cooling degree days 35 31  
Year to date cooling degree days 42 38  
Growing Degree Days 28 (Base 50)    
Moisture  
Dew Point 65 °F    
Average Humidity 67    
Maximum Humidity 90    
Minimum Humidity 43    
Precipitation  
Precipitation 0.04 in 0.13 in 1.42 in (1985)
Month to date precipitation 2.08 2.66  
Year to date precipitation 11.67 14.40  
Snow  
Snow 0.00 in - - ()
Month to date snowfall 0.0  
Since 1 July snowfall 17.0  
Snow Depth 0.00 in    
Sea Level Pressure  
Sea Level Pressure 29.86 in    
Wind  
Wind Speed 5 mph (SW)    
Max Wind Speed 30 mph    
Max Gust Speed 37 mph    
Visibility 9 miles    
Events Rain , Thunderstorm    
T = Trace of Precipitation, MM = Missing Value Source: NWS Daily Summary

Daily Weather History Graph

Daily Weather History Graph

Search for Another Location

Airport:

Trip Planner

Search our weather history database for the weather conditions in past years. The results will help you decide how hot, cold, wet, or windy it might be!

Date:

Astronomy

May. 22, 2013 Rise Set
Actual Time 5:45 AM EDT 8:22 PM EDT
Civil Twilight 5:13 AM EDT 8:54 PM EDT
Nautical Twilight 4:34 AM EDT 9:33 PM EDT
Astronomical Twilight 3:50 AM EDT 10:17 PM EDT
Moon 5:42 PM EDT (5/22) 3:48 AM EDT (5/22)
Length of Visible Light 15h 40m
Length of Day
14h 37m
Waxing Gibbous, 91% of the Moon is Illuminated
May 22
Waxing Gibbous
May 25
Full
May 31
Last Quarter
Jun 8
New
Jun 16
First Quarter

Hourly Weather History & Observations

Time (EDT) Temp. Heat Index Dew Point Humidity Pressure Visibility Wind Dir Wind Speed Gust Speed Precip Events Conditions
12:56 AM 73.9 °F - 66.9 °F 79% 29.86 in 9.0 mi SW 10.4 mph 16.1 mph N/A   Scattered Clouds
1:56 AM 73.0 °F - 66.9 °F 81% 29.85 in 9.0 mi Variable 3.5 mph - N/A   Mostly Cloudy
2:56 AM 73.0 °F - 66.9 °F 81% 29.84 in 9.0 mi SSW 4.6 mph - N/A   Mostly Cloudy
3:56 AM 71.1 °F - 66.9 °F 87% 29.84 in 8.0 mi Calm Calm - N/A   Mostly Cloudy
4:56 AM 70.0 °F - 66.9 °F 90% 29.84 in 7.0 mi SSE 4.6 mph - N/A   Scattered Clouds
5:56 AM 71.1 °F - 66.9 °F 87% 29.85 in 7.0 mi Calm Calm - N/A   Scattered Clouds
6:56 AM 71.1 °F - 68.0 °F 90% 29.87 in 4.0 mi SSE 3.5 mph - N/A   Scattered Clouds
7:56 AM 73.9 °F - 68.0 °F 82% 29.89 in 5.0 mi Calm Calm - N/A   Haze
8:56 AM 73.9 °F - 69.1 °F 85% 29.90 in 5.0 mi SE 4.6 mph - N/A   Haze
9:56 AM 75.9 °F - 69.1 °F 79% 29.90 in 7.0 mi Calm Calm - N/A   Scattered Clouds
10:56 AM 78.1 °F - 70.0 °F 76% 29.90 in 7.0 mi Calm Calm - N/A   Scattered Clouds
11:56 AM 82.0 °F 84.9 °F 68.0 °F 62% 29.89 in 10.0 mi SSW 4.6 mph - N/A   Scattered Clouds
12:56 PM 84.9 °F 85.9 °F 63.0 °F 48% 29.87 in 10.0 mi Calm Calm - N/A   Scattered Clouds
1:56 PM 87.1 °F 88.3 °F 64.0 °F 46% 29.85 in 10.0 mi Variable 3.5 mph - N/A   Scattered Clouds
2:56 PM 88.0 °F 89.3 °F 64.0 °F 45% 29.83 in 10.0 mi SW 5.8 mph - N/A   Mostly Cloudy
3:56 PM 88.0 °F 88.4 °F 62.1 °F 42% 29.82 in 10.0 mi SSW 9.2 mph 18.4 mph N/A   Mostly Cloudy
4:56 PM 88.0 °F 88.7 °F 63.0 °F 43% 29.78 in 10.0 mi SW 9.2 mph - N/A   Scattered Clouds
5:56 PM 86.0 °F 86.3 °F 62.1 °F 44% 29.78 in 10.0 mi South 15.0 mph 21.9 mph N/A   Mostly Cloudy
6:56 PM 84.0 °F 84.9 °F 63.0 °F 49% 29.80 in 10.0 mi South 12.7 mph 19.6 mph N/A   Mostly Cloudy
7:56 PM 82.0 °F 85.5 °F 69.1 °F 65% 29.83 in 7.0 mi Variable 6.9 mph - N/A   Mostly Cloudy
8:19 PM 73.4 °F - 59.0 °F 61% 29.85 in 10.0 mi NW 24.2 mph 36.8 mph N/A Thunderstorm Thunderstorm
8:20 PM 73.4 °F - 60.8 °F 65% 29.85 in 10.0 mi NW 23.0 mph 36.8 mph N/A Thunderstorm Thunderstorm
8:56 PM 71.1 °F - 63.0 °F 75% 29.88 in 6.0 mi NW 6.9 mph - 0.01 in Rain , Thunderstorm Light Thunderstorms and Rain
9:25 PM 69.8 °F - 64.4 °F 83% 29.88 in 10.0 mi South 6.9 mph - 0.01 in Rain Light Rain
9:45 PM 69.8 °F - 64.4 °F 83% 29.89 in 10.0 mi West 4.6 mph - 0.01 in Thunderstorm Thunderstorm
9:56 PM 69.1 °F - 64.9 °F 87% 29.88 in 10.0 mi NW 3.5 mph - 0.01 in Rain , Thunderstorm Light Thunderstorms and Rain
10:11 PM 69.8 °F - 64.4 °F 83% 29.89 in 10.0 mi Calm Calm - 0.00 in   Overcast
10:56 PM 68.0 °F - 64.9 °F 90% 29.88 in 9.0 mi Variable 3.5 mph - 0.01 in Rain Light Rain
11:56 PM 69.1 °F - 63.0 °F 81% 29.88 in 10.0 mi WSW 8.1 mph - 0.00 in Rain Light Rain